GW5356 Weather Reports


time (UTC)temp
C
wind
direction
speed
KPH
gust
KPH
rain 1hr
cm
rain 24hr
cm
rain mn
cm
humidity
%
barometer
mb
20260510233053 25 136 0.0 6.4 0.00 0.00 0.00 35 1014.7
20260510231556 25 1.6 6.4 0.00 0.00 0.00 33 1014.6
20260510230056 -17 0.0 0.0 0.00 0.00 0.00 1014.6
20260510224553 -17 0.0 0.0 0.00 0.00 0.00 1014.6
20260510223054 -17 0.0 0.0 0.00 0.00 0.00 1014.5
20260510221555 -17 0.0 0.0 0.00 0.00 0.00 1014.6
20260510220054 -17 0.0 0.0 0.00 0.00 0.00 1014.5
20260510214552 26 3.2 8.0 0.00 0.00 0.00 28 1014.4
20260510213053 -17 349 4.8 0.0 0.00 0.00 0.00 1014.3
20260510211554 27 22 4.8 8.0 0.00 0.00 0.00 28 1014.1
20260510210057 -17 0.0 0.0 0.00 0.00 0.00 1014.2
20260510204604 26 127 1.6 11.3 0.00 0.00 0.00 26 1014.4
20260510203103 -17 0.0 0.0 0.00 0.00 0.00 1014.4
20260510201554 27 105 4.8 8.0 0.00 0.00 0.00 27 1014.5
20260510200054 -17 4.8 6.4 0.00 0.00 0.00 1014.6
20260510194559 -17 0.0 0.0 0.00 0.00 0.00 1014.8
20260510193057 27 216 3.2 11.3 0.00 0.00 0.00 27 1014.9
20260510191557 27 144 1.6 9.7 0.00 0.00 0.00 27 1015.0
20260510190057 27 88 3.2 6.4 0.00 0.00 0.00 27 1015.3
20260510184600 27 136 0.0 6.4 0.00 0.00 0.00 27 1015.2
20260510183055 27 101 1.6 9.7 0.00 0.00 0.00 28 1015.4
20260510181553 27 1.6 6.4 0.00 0.00 0.00 27 1015.4
20260510180052 27 23 4.8 8.0 0.00 0.00 0.00 26 1015.6
20260510174558 27 143 1.6 9.7 0.00 0.00 0.00 26 1015.8
20260510173051 26 1.6 4.8 0.00 0.00 0.00 28 1016.0
20260510171607 26 23 3.2 9.7 0.00 0.00 0.00 29 1016.1
20260510170055 26 229 1.6 9.7 0.00 0.00 0.00 29 1016.2
20260510164556 26 256 3.2 8.0 0.00 0.00 0.00 30 1016.2
20260510163101 -17 3.2 0.0 0.00 0.00 0.00 1016.2
20260510161553 25 50 1.6 8.0 0.00 0.00 0.00 27 1016.4
20260510160054 25 348 0.0 8.0 0.00 0.00 0.00 27 1016.5
20260510154603 25 221 0.0 4.8 0.00 0.00 0.00 32 1016.4
20260510153057 24 77 1.6 8.0 0.00 0.00 0.00 1016.5
20260510151555 24 150 1.6 8.0 0.00 0.00 0.00 35 1016.5
20260510150057 23 124 3.2 9.7 0.00 0.00 0.00 38 1016.6
20260510144607 23 231 1.6 6.4 0.00 0.00 0.00 40 1016.6
20260510143107 22 131 3.2 4.8 0.00 0.00 0.00 41 1016.5
20260510141603 22 39 1.6 6.4 0.00 0.00 0.00 42 1016.5
20260510140053 22 57 3.2 6.4 0.00 0.00 0.00 47 1016.5
20260510134604 21 87 1.6 6.4 0.00 0.00 0.00 51 1016.5
20260510133052 20 99 3.2 4.8 0.00 0.00 0.00 54 1016.4
20260510131551 20 58 3.2 4.8 0.00 0.00 0.00 56 1016.4
20260510130055 20 142 1.6 3.2 0.00 0.00 0.00 57 1016.2
20260510124602 18 91 1.6 3.2 0.00 0.00 0.00 59 1016.1
20260510123055 18 139 1.6 4.8 0.00 0.00 0.00 63 1016.0
20260510121551 17 82 1.6 4.8 0.00 0.00 0.00 66 1016.0
20260510120052 17 96 1.6 3.2 0.00 0.00 0.00 70 1015.6
20260510114554 16 70 1.6 4.8 0.00 0.00 0.00 70 1015.8
20260510113052 15 122 3.2 4.8 0.00 0.00 0.00 73 1015.1
20260510111605 15 117 1.6 3.2 0.00 0.00 0.00 76 1014.9
20260510110052 13 73 0.0 1.6 0.00 0.00 0.00 82 1014.8
20260510104611 13 70 0.0 1.6 0.00 0.00 0.00 85 1014.5
20260510103055 12 0 0.0 1.6 0.00 0.00 0.00 87 1014.2
20260510101555 12 70 0.0 1.6 0.00 0.00 0.00 86 1013.9
20260510094555 13 0 0.0 0.0 0.00 0.00 0.00 86 1013.5
20260510093055 12 0 0.0 0.0 0.00 0.00 0.00 87 1013.4
20260510091555 12 0 0.0 0.0 0.00 0.00 0.00 88 1013.4
20260510090053 13 0 0.0 0.0 0.00 0.00 0.00 89 1013.2
20260510084552 13 0 0.0 0.0 0.00 0.00 0.00 89 1013.3
20260510083054 13 0 0.0 1.6 0.00 0.00 0.00 90 1013.1
20260510081620 13 0 0.0 1.6 0.00 0.00 0.00 89 1012.8
20260510080051 14 6 1.6 3.2 0.00 0.00 0.00 87 1012.8
20260510074557 15 79 0.0 1.6 0.00 0.00 0.00 83 1012.4
20260510073052 15 76 0.0 1.6 0.00 0.00 0.00 86 1012.5
20260510071553 15 75 0.0 1.6 0.00 0.00 0.00 87 1012.4
20260510070100 15 0 0.0 1.6 0.00 0.00 0.00 88 1012.4
20260510064553 15 93 1.6 3.2 0.00 0.00 0.00 88 1012.3
20260510063059 15 86 1.6 1.6 0.00 0.00 0.00 87 1012.4
20260510061556 16 83 1.6 4.8 0.00 0.00 0.00 87 1012.4
20260510060059 16 67 1.6 3.2 0.00 0.00 0.00 86 1012.6
20260510054558 16 126 0.0 3.2 0.00 0.00 0.00 84 1012.6
20260510053057 16 98 0.0 1.6 0.00 0.00 0.00 85 1012.7
20260510051640 16 0 0.0 1.6 0.00 0.00 0.00 86 1012.6
20260510050056 15 98 0.0 1.6 0.00 0.00 0.00 89 1012.9
20260510044556 15 0 0.0 1.6 0.00 0.00 0.00 88 1012.9
20260510043145 16 0 0.0 1.6 0.00 0.00 0.00 87 1012.8
20260510041558 16 97 0.0 1.6 0.00 0.00 0.00 86 1012.9
20260510040057 16 98 0.0 1.6 0.00 0.00 0.00 85 1012.7
20260510034558 17 0 0.0 1.6 0.00 0.00 0.00 84 1013.0
20260510033057 17 0 0.0 1.6 0.00 0.00 0.00 82 1012.8
20260510031625 17 98 0.0 1.6 0.00 0.00 0.00 82 1012.8
20260510030057 17 0 0.0 0.0 0.00 0.00 0.00 82 1012.8
20260510024604 17 0 0.0 0.0 0.00 0.00 0.00 82 1012.9
20260510023059 17 0 0.0 0.0 0.00 0.00 0.00 80 1012.8
20260510021552 18 0 0.0 1.6 0.00 0.00 0.00 79 1012.5
20260510020054 18 0 0.0 1.6 0.00 0.00 0.00 78 1012.4
20260510014552 18 0 0.0 3.2 0.00 0.00 0.00 77 1012.2
20260510013051 19 0 1.6 4.8 0.00 0.00 0.00 76 1012.0
20260510011609 19 203 0.0 3.2 0.00 0.00 0.00 75 1011.9
20260510010106 20 0 0.0 3.2 0.00 0.00 0.00 74 1011.6
20260510004553 20 310 0.0 3.2 0.00 0.00 0.00 73 1011.2
20260510003101 20 228 0.0 1.6 0.00 0.00 0.00 72 1010.8
20260510001554 20 0 0.0 4.8 0.00 0.00 0.00 71 1010.6
20260510000055 20 281 0.0 3.2 0.00 0.00 0.00 69 1010.4
20260509234558 21 81 0.0 1.6 0.00 0.00 0.00 68 1010.1